Simultaneous Nadir Overpasses (SNOs) Predictions

Prediction of SNOs between METOP-B and NOAA-19 Satellite Orbit:

Table of predicted SNOs for the next 14.0 days since TLE Epoch: 8/18/2017
Index Date (METOP-B) Time (METOP-B) Lat,Lon (METOP-B) SZA (METOP-B ) Date (NOAA-19) Time (NOAA-19) Lat,Lon (NOAA-19) SZA (NOAA-19 ) Distance(km) Time Diff (sec)
1 08/28/2017 23:29:16 77.51,-166.55 68.13 08/28/2017 23:28:09 77.50,-166.46 68.12 2.51 67
2 08/29/2017 00:19:58 -77.51, 0.77 111.86 08/29/2017 00:19:11 -77.51, 0.70 111.86 1.75 47
3 08/29/2017 01:10:38 77.49, 168.01 68.13 08/29/2017 01:10:10 77.48, 168.13 68.12 3.08 28
4 08/29/2017 02:01:20 -77.49, -24.66 111.86 08/29/2017 02:01:12 -77.49, -24.70 111.86 1.06 8
5 08/29/2017 02:52:00 77.47, 142.58 68.14 08/29/2017 02:52:12 77.50, 142.52 68.17 3.56 12
6 08/29/2017 03:42:42 -77.47, -50.09 111.85 08/29/2017 03:43:13 -77.47, -50.10 111.85 0.44 31
7 08/29/2017 04:33:22 77.45, 117.15 68.14 08/29/2017 04:34:13 77.48, 117.12 68.17 3.41 51
8 08/29/2017 05:24:04 -77.45, -75.52 111.85 08/29/2017 05:25:14 -77.45, -75.50 111.84 0.48 70




NCC Satellite Simultaneous Nadir Overpasses (SNOs) Prediction Service
